SCP
0 0 0 0 0 0 0 0 0 0 0 0 0 0 0 1 1 1 1 0 0 0 0 0 0 1 0 0 0 0 0 0 0 0 0 0 0 0 0 0 0 0 0
0 0 0 0 0 0 0 0 0 0 0 0 0 0 0 0 1 1 1 1 0 0 0 0 0 0 0 0 0 0 0 0 0 0 0 0 0 0 0 0 0 0 0
0 0 0 0 0 0 0 0 0 0 0 0 0 0 0 0 0 1 1 1 0 0 0 0 0 0 0 0 0 0 0 0 0 0 0 0 0 0 0 0 0 0 0
0 0 0 0 0 0 0 0 0 0 0 0 0 0 0 0 0 0 0 0 0 0 0 0 0 0 0 0 0 0 0 0 0 0 0 0 0 0 0 0 0 0 0
0 0 0 0 0 0 0 0 0 0 0 0 0 0 0 0 0 0 0 0 0 0 0 0 0 0 0 0 0 0 0 0 0 0 0 0 0 0 0 0 0 0 0
0 0 0 0 0 0 0 0 0 0 0 0 0 0 0 0 0 0 0 0 0 0 0 0 0 0 0 0 0 0 0 0 0 0 0 0 0 0 0 0 0 0 0
0 0 0 0 0 0 0 0 0 0 0 0 0 0 0 0 0 0 0 0 0 0 0 0 0 0 0 0 0 0 0 0 0 0 0 0 0 0 0 0 0 0 0
0 0 0 0 0 0 0 0 0 0 0 0 0 0 0 0 0 0 0 0 0 0 0 0 0 0 0 0 0 0 0 0 0 0 0 0 0 0 0 0 0 0 0
0 0 0 0 0 0 0 0 0 0 0 0 0 0 0 0 0 0 0 0 0 0 0 0 0 0 0 0 0 0 0 0 0 0 0 0 0 0 0 0 0 0 0
0 0 0 0 0 0 0 0 0 0 0 0 0 0 0 0 0 0 0 0 0 0 0 0 0 0 0 0 0 0 0 0 0 0 0 0 0 0 0 0 0 0 0
0 0 0 0 0 0 0 0 0 0 0 0 0 0 0 0 0 0 0 0 0 0 0 0 0 0 0 0 0 0 0 0 0 0 0 0 0 0 0 0 0 0 0
0 0 0 0 0 0 0 0 0 0 0 0 0 0 0 0 0 0 0 0 0 0 0 0 0 0 0 0 0 0 0 0 0 0 0 0 0 0 0 0 0 0 0
0 0 0 0 0 0 0 0 0 0 0 0 0 0 0 0 0 0 0 0 0 0 0 0 0 0 0 0 0 0 0 0 0 0 0 0 0 0 0 0 0 0 0
0 0 0 0 0 0 0 0 0 0 0 0 0 0 0 0 0 0 0 0 0 0 0 0 0 0 0 0 0 0 0 0 0 0 0 0 0 0 0 0 0 0 0
0 0 0 0 0 0 0 0 0 0 0 0 0 0 0 0 0 0 0 0 0 0 0 0 0 0 0 0 0 0 0 0 0 0 0 0 0 0 0 0 0 0 0
0 0 0 0 0 0 0 0 0 0 0 0 0 0 0 0 0 0 0 0 0 0 0 0 0 0 0 0 0 0 0 0 0 0 0 0 0 0 0 0 0 0 0
0 0 0 0 0 0 0 0 0 0 0 0 0 0 0 0 0 0 0 0 0 0 0 0 0 0 0 0 0 0 0 0 0 0 0 0 0 0 0 0 0 0 0
0 0 0 0 0 0 0 0 0 0 0 0 0 0 0 0 0 0 0 0 0 0 0 0 0 0 0 0 0 0 0 0 0 0 0 0 0 0 0 0 0 0 0
0 0 0 0 0 0 0 0 0 0 0 0 0 0 0 0 0 0 0 0 0 0 0 0 0 0 0 0 0 0 0 0 0 0 0 0 0 0 0 0 0 0 0
0 0 0 0 0 0 0 0 0 0 0 0 0 0 0 0 0 0 0 0 0 0 0 0 0 0 0 0 0 0 0 0 0 0 0 0 0 0 0 0 0 0 0
0 0 0 0 0 0 0 0 0 0 0 0 0 0 0 0 0 0 0 0 0 0 0 0 0 0 0 0 0 0 0 0 0 0 0 0 0 0 0 0 0 0 0
0 0 0 0 0 0 0 0 0 0 0 0 0 0 0 0 0 0 0 0 0 0 0 0 0 0 0 0 0 0 0 0 0 0 0 0 0 0 0 0 0 0 0
0 0 0 0 0 0 0 0 0 0 0 0 0 0 0 0 0 0 0 0 0 0 0 0 0 0 0 0 0 0 0 0 0 0 0 0 0 0 0 0 0 0 0
0 0 0 0 0 0 0 0 0 0 0 0 0 0 0 0 0 0 0 0 0 0 0 0 0 0 0 0 0 0 0 0 0 0 0 0 0 0 0 0 0 0 0
0 0 0 0 0 0 0 0 0 0 0 0 0 0 0 0 0 0 0 0 0 0 0 0 0 0 0 0 0 0 0 0 0 0 0 0 0 0 0 0 0 0 0
0 0 0 0 0 0 0 0 0 0 0 0 0 0 0 0 0 0 0 0 0 0 0 0 0 0 0 0 0 0 0 0 0 0 0 0 0 0 0 0 0 0 0
Wind_Speed
2 2 2 2 2 2 1 1 1 1 1 1 1 2 2 2 2 2 3 3 3 4 4 4 4 4 3 3 3 3 3 4 7 6 5 5 5 6 6 5 6 6 7
2 2 2 2 2 1 0 0 0 1 1 2 2 2 2 2 2 3 3 3 3 4 5 4 4 3 4 3 3 3 4 4 5 8 6 5 6 6 6 6 6 6 6
3 3 2 2 2 1 0 1 1 1 2 2 1 2 2 2 3 3 3 4 4 5 4 4 4 3 4 3 3 3 3 4 4 5 6 5 4 5 6 6 6 5 6
3 3 2 1 1 0 1 1 1 1 1 2 2 2 2 2 3 3 3 3 3 3 3 3 3 3 4 3 3 4 3 4 4 4 5 5 4 5 4 5 6 5 6
3 2 2 1 1 1 1 1 1 1 2 2 2 2 2 2 2 2 2 3 2 3 3 3 3 4 5 4 3 3 3 3 4 4 5 5 5 4 5 4 6 6 6
3 2 2 2 2 1 1 1 1 1 2 2 2 2 2 3 4 5 3 2 2 2 3 3 3 4 5 7 7 7 6 5 5 4 4 5 6 6 5 5 6 6 6
3 2 2 2 2 2 2 2 1 2 2 2 2 2 3 4 5 5 4 2 1 2 2 2 3 3 5 3 5 7 7 8 8 6 5 6 6 6 6 6 6 6 7
2 2 2 2 2 2 2 2 2 1 1 2 2 2 3 4 5 4 4 2 1 1 2 2 2 3 3 4 3 4 4 4 5 4 4 5 5 5 5 6 6 6 6
3 2 2 2 2 2 2 2 2 2 2 2 2 2 3 4 5 4 4 1 1 2 2 2 3 3 5 6 4 4 4 4 5 6 6 7 8 9 7 4 4 4 5
3 3 2 2 2 2 2 2 2 1 2 2 3 2 3 3 4 4 3 1 1 2 2 2 4 4 6 6 3 3 4 4 4 5 5 6 6 6 8 4 4 4 4
3 3 2 2 2 2 2 2 2 2 2 2 3 3 2 3 4 4 4 1 1 2 2 3 3 5 6 6 5 3 4 5 3 3 3 4 4 4 4 3 3 3 4
3 3 3 2 2 2 2 2 2 1 2 2 2 3 2 3 4 4 4 4 3 2 2 2 3 6 6 6 4 4 6 5 3 3 3 4 4 4 4 4 4 4 4
3 3 3 3 2 2 2 2 2 1 1 2 2 2 3 2 3 5 5 5 4 2 2 4 5 6 6 4 5 6 5 3 3 3 3 4 4 4 4 4 4 4 4
2 3 2 2 3 2 2 2 1 1 1 2 2 2 3 3 2 2 2 2 3 3 2 3 5 5 4 4 4 4 3 2 2 3 3 4 4 4 3 3 4 4 4
2 2 2 2 2 2 2 2 2 2 2 2 2 2 3 3 4 5 4 2 2 2 2 2 2 2 2 2 2 2 2 3 3 3 3 3 4 4 4 3 3 3 3
2 2 2 2 2 2 2 3 4 3 4 4 4 4 4 5 7 7 6 5 5 4 2 1 2 2 2 2 3 3 3 3 3 3 3 3 3 4 4 3 3 3 3
2 3 2 2 2 2 2 2 3 4 5 5 5 5 5 6 6 6 6 5 4 4 1 1 2 2 2 2 2 3 3 3 3 3 3 3 3 4 4 4 3 3 3
2 3 3 2 2 2 2 2 2 2 3 3 4 6 6 6 6 6 5 4 3 3 1 2 2 2 2 2 3 3 3 3 3 3 3 3 3 3 3 3 3 3 4
2 2 2 2 2 2 2 1 1 2 2 3 3 3 5 5 6 5 4 2 2 2 2 2 2 2 2 3 3 3 3 3 3 3 3 3 3 3 3 3 3 4 3
2 4 3 2 2 2 2 1 1 2 2 2 2 3 3 3 3 3 2 2 2 2 2 2 2 2 3 3 3 3 3 3 3 3 3 3 3 3 3 3 3 2 2
2 2 4 2 1 2 2 2 2 2 2 2 2 3 4 2 2 3 2 2 2 2 2 2 3 3 3 3 3 3 3 3 3 3 3 3 2 2 2 2 2 2 2
2 1 2 2 2 2 2 2 2 2 2 3 3 3 5 3 2 2 2 2 2 2 2 3 3 3 3 3 3 3 3 3 3 3 3 3 2 2 2 2 2 2 2
1 1 1 1 1 2 2 2 2 2 2 2 2 3 3 2 2 2 3 3 3 3 3 2 3 3 3 3 3 3 3 4 3 3 3 2 2 2 2 2 2 2 2
1 1 1 1 1 1 1 2 2 2 2 2 2 2 3 2 2 3 3 3 3 3 3 3 3 4 5 4 3 3 3 3 3 3 3 2 2 2 2 2 2 2 2
1 1 1 1 1 1 1 2 2 2 2 2 2 2 2 2 2 3 3 3 3 3 4 4 3 4 5 6 5 4 5 5 4 2 1 1 1 1 2 2 1 1 2
1 1 1 1 1 1 1 2 2 2 2 2 2 2 2 2 3 3 3 3 3 3 4 4 4 5 5 4 5 5 5 5 4 3 1 0 0 1 1 1 1 2 1
Wind_Direction
117 119 117 122 118 118 126 182 231 261 264 262 266 273 276 274 264 258 259 260 260 263 259 251 254 253 252 251 250 250 249 249 270 286 285 294 295 296 304 302 301 302 304
108 106 105 102 98 98 103 278 285 289 284 270 269 273 278 283 273 259 265 268 261 267 269 264 268 267 263 255 250 254 258 254 262 284 294 297 292 296 298 300 305 308 303
93 95 90 86 91 88 353 318 320 303 296 293 280 275 279 281 280 270 262 265 262 262 265 265 269 266 270 268 265 267 268 270 261 271 287 294 294 300 303 301 300 299 304
81 82 79 73 75 40 338 332 321 305 293 294 288 279 280 282 279 276 275 274 276 277 271 269 270 264 266 273 276 272 274 279 278 277 287 297 295 296 298 304 310 310 307
73 63 44 38 46 37 9 335 324 316 313 298 294 301 301 286 276 277 277 283 283 292 296 288 278 284 285 284 283 283 282 281 284 284 288 297 300 309 307 302 303 308 302
65 48 32 33 35 21 355 345 341 334 330 330 319 308 303 295 297 295 296 286 286 292 296 300 300 306 311 310 308 303 295 287 287 284 288 294 298 299 299 303 306 313 309
53 36 30 32 27 4 356 6 347 332 340 334 325 323 303 299 302 303 306 304 287 284 291 304 311 318 324 319 320 319 318 312 297 282 282 288 294 298 302 303 301 298 291
43 24 18 29 21 5 3 353 338 335 336 323 315 310 307 304 311 316 319 327 309 299 299 298 298 307 316 319 318 315 308 309 308 300 284 289 293 296 290 288 288 290 285
22 4 355 9 3 357 351 337 329 339 334 322 315 307 299 299 313 321 332 338 323 318 315 314 307 302 316 322 321 315 315 316 320 318 314 315 318 325 324 315 311 307 301
351 340 339 352 347 332 321 312 311 313 310 313 315 308 296 295 320 333 340 330 318 315 322 315 312 314 317 323 316 311 312 311 316 323 326 328 327 329 335 323 304 297 300
337 339 345 346 333 319 313 305 303 309 319 313 312 317 318 321 332 337 328 314 290 310 316 316 314 320 321 327 327 318 310 311 311 313 312 317 321 324 325 319 307 288 287
343 346 346 346 340 338 330 319 317 322 330 326 325 330 334 332 337 335 333 325 315 300 299 302 309 318 325 332 333 331 330 330 323 321 321 323 323 321 317 311 300 285 269
347 343 341 340 336 331 325 321 320 326 327 316 322 322 321 328 332 339 339 338 333 320 301 306 316 328 329 333 339 338 337 333 328 325 319 312 306 301 304 304 304 296 288
328 322 321 324 322 328 323 313 309 303 296 300 303 303 307 313 319 325 325 329 333 325 320 325 333 342 346 343 341 340 336 326 319 308 306 300 303 306 310 310 309 317 316
321 315 317 318 313 319 318 305 298 274 268 286 290 289 299 305 308 315 316 312 304 294 314 326 334 331 340 334 328 326 326 327 324 310 306 309 313 315 312 311 307 314 313
314 317 312 309 306 306 313 322 323 310 324 323 318 313 306 305 316 324 327 328 327 314 323 317 312 312 314 313 314 317 318 316 309 303 304 306 310 313 314 316 317 313 309
286 296 297 297 296 300 305 311 319 336 343 342 339 335 331 329 333 337 339 339 337 338 339 308 297 301 301 301 301 303 304 304 301 297 300 304 306 306 308 313 318 317 313
284 291 293 284 282 285 286 291 296 306 319 327 339 340 340 342 344 345 344 347 349 356 340 312 304 305 306 304 302 302 303 306 305 300 297 299 301 302 306 311 313 312 310
290 282 278 277 280 284 288 292 294 295 296 304 318 328 338 338 341 347 349 351 333 321 314 309 303 301 301 297 295 296 294 295 299 299 298 298 297 298 300 304 306 316 314
295 295 298 293 294 298 296 293 291 289 291 295 303 311 325 332 330 334 341 332 315 303 302 300 299 295 294 294 295 295 296 296 298 294 294 295 294 290 293 300 305 308 310
296 299 304 309 301 294 291 285 283 283 288 292 295 302 310 311 310 315 314 311 303 297 297 296 292 290 288 289 290 290 292 291 290 287 287 289 288 289 290 296 302 303 307
279 281 285 283 289 291 288 284 284 283 287 292 302 311 315 314 307 307 305 303 300 294 290 288 287 286 285 283 284 285 286 288 291 287 284 285 288 292 298 305 310 312 323
276 273 282 293 296 291 298 296 288 282 283 288 295 302 306 303 301 301 302 303 303 302 300 295 293 296 296 285 277 273 275 280 280 273 275 283 288 294 297 297 303 314 327
270 265 271 285 293 294 293 291 286 283 283 287 291 292 293 294 295 298 301 304 305 303 300 297 292 293 296 294 288 279 274 278 278 268 263 263 280 291 298 302 307 313 317
266 259 260 267 275 279 285 292 289 283 281 284 286 288 293 297 295 296 300 303 304 304 305 302 296 293 293 293 292 290 291 294 294 285 262 248 266 286 299 300 306 323 322
274 268 267 267 268 273 277 285 291 292 286 283 283 284 289 296 296 297 301 304 305 305 304 300 298 299 300 297 297 300 303 309 310 304 289 237 263 296 303 298 311 318 319